Time,TemperatureF,DewpointF,PressureIn,WindDirection,WindDirectionDegrees,WindSpeedMPH,WindSpeedGustMPH,Humidity,HourlyPrecipIn,Conditions,Clouds,dailyrainin,SoftwareType,DateUTC
2013-03-11 00:00:00,37.2,28.0,-100.00,NW,315,0.0,0.0,69,0.00,,,0.00,WSDL version 423,2013-03-11 04:00:00,
2013-03-11 00:06:00,37.2,28.0,-100.00,NW,315,0.0,0.0,69,0.00,,,0.00,WSDL version 423,2013-03-11 04:06:00,
2013-03-11 00:12:00,37.2,28.0,-100.00,NW,315,0.0,0.0,69,0.00,,,0.00,WSDL version 423,2013-03-11 04:12:00,
2013-03-11 00:18:00,37.0,27.9,-100.00,NW,315,0.0,0.9,70,0.00,,,0.00,WSDL version 423,2013-03-11 04:18:00,
2013-03-11 00:24:00,37.0,28.2,-100.00,NW,315,0.0,0.9,70,0.00,,,0.00,WSDL version 423,2013-03-11 04:24:00,
2013-03-11 00:30:00,37.0,28.2,-100.00,NW,315,0.0,0.0,70,0.00,,,0.00,WSDL version 423,2013-03-11 04:30:00,
2013-03-11 00:36:00,36.9,28.1,-100.00,NW,315,0.0,0.0,70,0.00,,,0.00,WSDL version 423,2013-03-11 04:36:00,
2013-03-11 00:42:00,37.1,28.2,-100.00,NW,315,0.0,0.0,70,0.00,,,0.00,WSDL version 423,2013-03-11 04:42:00,
2013-03-11 00:48:00,37.2,28.4,-100.00,NW,315,0.0,0.0,70,0.00,,,0.00,WSDL version 423,2013-03-11 04:48:00,
2013-03-11 00:54:00,37.4,28.5,-100.00,NW,315,0.3,1.1,70,0.00,,,0.00,WSDL version 423,2013-03-11 04:54:00,
2013-03-11 01:00:00,37.5,28.8,-100.00,NW,315,0.0,1.1,71,0.00,,,0.00,WSDL version 423,2013-03-11 05:00:00,
2013-03-11 01:08:00,37.7,29.1,-100.00,NW,315,0.5,2.0,71,0.00,,,0.00,WSDL version 423,2013-03-11 05:08:00,
2013-03-11 01:13:00,37.9,29.4,-100.00,NNW,329,1.3,3.1,71,0.00,,,0.00,WSDL version 423,2013-03-11 05:13:00,
2013-03-11 01:19:00,38.0,29.5,-100.00,NW,315,0.6,2.9,71,0.00,,,0.00,WSDL version 423,2013-03-11 05:19:00,
2013-03-11 01:25:00,38.2,29.6,-100.00,WNW,302,0.2,2.0,71,0.00,,,0.00,WSDL version 423,2013-03-11 05:25:00,
2013-03-11 01:31:00,38.5,29.9,-100.00,NW,315,0.0,1.6,71,0.00,,,0.00,WSDL version 423,2013-03-11 05:31:00,
2013-03-11 01:37:00,38.5,29.9,-100.00,NW,315,0.0,2.0,71,0.00,,,0.00,WSDL version 423,2013-03-11 05:37:00,
2013-03-11 01:43:00,38.7,30.1,-100.00,NW,315,0.1,1.3,71,0.00,,,0.00,WSDL version 423,2013-03-11 05:43:00,
2013-03-11 01:49:00,38.7,30.1,-100.00,NW,315,1.2,2.5,71,0.00,,,0.00,WSDL version 423,2013-03-11 05:49:00,
2013-03-11 01:55:00,38.8,30.3,-100.00,NW,315,1.6,2.9,71,0.00,,,0.00,WSDL version 423,2013-03-11 05:55:00,
2013-03-11 02:01:00,38.9,30.3,-100.00,NW,309,0.7,2.9,71,0.00,,,0.00,WSDL version 423,2013-03-11 06:01:00,
2013-03-11 02:07:00,39.0,30.4,-100.00,SW,225,0.0,2.5,71,0.00,,,0.00,WSDL version 423,2013-03-11 06:07:00,
2013-03-11 02:13:00,39.0,30.4,-100.00,NW,313,1.5,2.5,71,0.00,,,0.00,WSDL version 423,2013-03-11 06:13:00,
2013-03-11 02:20:00,39.2,30.6,-100.00,WNW,302,0.0,2.5,71,0.00,,,0.00,WSDL version 423,2013-03-11 06:20:00,
2013-03-11 02:26:00,39.2,30.6,-100.00,NW,318,1.0,2.7,71,0.00,,,0.00,WSDL version 423,2013-03-11 06:26:00,
2013-03-11 02:32:00,39.3,30.7,-100.00,NNW,335,2.0,3.6,71,0.00,,,0.00,WSDL version 423,2013-03-11 06:32:00,
2013-03-11 02:38:00,39.4,30.8,-100.00,NW,315,0.0,3.6,71,0.00,,,0.00,WSDL version 423,2013-03-11 06:38:00,
2013-03-11 02:44:00,39.4,30.8,-100.00,NW,321,0.0,3.8,71,0.00,,,0.00,WSDL version 423,2013-03-11 06:44:00,
2013-03-11 02:50:00,39.4,30.8,-100.00,NW,310,0.4,3.6,71,0.00,,,0.00,WSDL version 423,2013-03-11 06:50:00,
2013-03-11 02:56:00,39.4,30.8,-100.00,NW,320,0.1,2.5,71,0.00,,,0.00,WSDL version 423,2013-03-11 06:56:00,
2013-03-11 03:02:00,39.6,30.9,-100.00,NW,315,0.0,2.5,71,0.00,,,0.00,WSDL version 423,2013-03-11 07:02:00,
2013-03-11 03:08:00,39.5,30.9,-100.00,NW,325,0.3,2.5,71,0.00,,,0.00,WSDL version 423,2013-03-11 07:08:00,
2013-03-11 03:14:00,39.6,30.9,-100.00,NNW,338,0.4,2.0,71,0.00,,,0.00,WSDL version 423,2013-03-11 07:14:00,
2013-03-11 03:20:00,39.6,31.0,-100.00,NW,318,1.8,2.7,72,0.00,,,0.00,WSDL version 423,2013-03-11 07:20:00,
2013-03-11 03:26:00,39.6,31.2,-100.00,NW,315,0.4,2.7,71,0.00,,,0.00,WSDL version 423,2013-03-11 07:26:00,
2013-03-11 03:32:00,39.6,30.9,-100.00,NW,305,0.0,2.2,71,0.00,,,0.00,WSDL version 423,2013-03-11 07:32:00,
2013-03-11 03:38:00,39.7,31.1,-100.00,NW,310,0.5,2.0,72,0.00,,,0.00,WSDL version 423,2013-03-11 07:38:00,
2013-03-11 03:44:00,39.7,31.5,-100.00,NW,304,1.3,2.7,72,0.00,,,0.00,WSDL version 423,2013-03-11 07:44:00,
2013-03-11 03:50:00,39.7,31.5,-100.00,NW,315,0.3,2.7,72,0.00,,,0.00,WSDL version 423,2013-03-11 07:50:00,
2013-03-11 03:56:00,39.8,31.5,-100.00,NW,310,1.9,2.5,72,0.00,,,0.00,WSDL version 423,2013-03-11 07:56:00,
2013-03-11 04:02:00,39.9,31.6,-100.00,NW,318,1.9,3.1,72,0.00,,,0.00,WSDL version 423,2013-03-11 08:02:00,
2013-03-11 04:08:00,39.9,31.6,-100.00,NW,309,0.3,3.1,72,0.00,,,0.00,WSDL version 423,2013-03-11 08:08:00,
2013-03-11 04:14:00,39.9,31.7,-100.00,NW,318,0.7,2.5,73,0.00,,,0.00,WSDL version 423,2013-03-11 08:14:00,
2013-03-11 04:20:00,39.9,31.9,-100.00,WNW,287,0.0,2.2,72,0.00,,,0.00,WSDL version 423,2013-03-11 08:20:00,
2013-03-11 04:27:00,39.9,31.7,-100.00,NW,323,2.3,3.1,73,0.00,,,0.00,WSDL version 423,2013-03-11 08:27:00,
2013-03-11 04:32:00,39.9,32.0,-100.00,NW,315,0.8,3.6,73,0.00,,,0.00,WSDL version 423,2013-03-11 08:32:00,
2013-03-11 04:38:00,40.0,32.1,-100.00,ESE,105,0.0,2.7,73,0.00,,,0.00,WSDL version 423,2013-03-11 08:38:00,
2013-03-11 04:46:00,40.1,32.2,-100.00,NW,318,0.8,2.2,73,0.00,,,0.00,WSDL version 423,2013-03-11 08:46:00,
2013-03-11 04:52:00,40.3,32.3,-100.00,NW,315,0.0,2.2,73,0.00,,,0.00,WSDL version 423,2013-03-11 08:52:00,
2013-03-11 04:58:00,40.3,32.3,-100.00,NW,320,0.4,2.2,73,0.00,,,0.00,WSDL version 423,2013-03-11 08:58:00,
2013-03-11 05:04:00,40.3,32.3,-100.00,NW,315,0.5,2.5,73,0.00,,,0.00,WSDL version 423,2013-03-11 09:04:00,
2013-03-11 05:10:00,40.4,32.5,-100.00,North,357,0.9,2.5,73,0.00,,,0.00,WSDL version 423,2013-03-11 09:10:00,
2013-03-11 05:16:00,40.5,32.5,-100.00,NNW,343,0.4,2.2,73,0.00,,,0.00,WSDL version 423,2013-03-11 09:16:00,
2013-03-11 05:22:00,40.5,32.5,-100.00,NW,318,1.7,2.5,73,0.00,,,0.00,WSDL version 423,2013-03-11 09:22:00,
2013-03-11 05:28:00,40.5,32.8,-100.00,NW,309,0.0,3.6,74,0.00,,,0.00,WSDL version 423,2013-03-11 09:28:00,
2013-03-11 05:34:00,40.6,33.0,-100.00,North,360,0.0,3.6,74,0.00,,,0.00,WSDL version 423,2013-03-11 09:34:00,
2013-03-11 05:40:00,40.6,33.0,-100.00,NW,315,1.5,2.5,74,0.00,,,0.00,WSDL version 423,2013-03-11 09:40:00,
2013-03-11 05:46:00,40.6,33.0,-100.00,NW,318,0.6,2.5,74,0.00,,,0.00,WSDL version 423,2013-03-11 09:46:00,
2013-03-11 05:52:00,40.6,33.0,-100.00,NW,326,1.6,3.4,74,0.00,,,0.00,WSDL version 423,2013-03-11 09:52:00,
2013-03-11 05:58:00,40.6,33.0,-100.00,NW,309,0.4,3.4,74,0.00,,,0.00,WSDL version 423,2013-03-11 09:58:00,
2013-03-11 06:04:00,40.7,33.1,-100.00,North,349,1.5,2.7,74,0.00,,,0.00,WSDL version 423,2013-03-11 10:04:00,
2013-03-11 06:10:00,40.8,33.2,-100.00,SE,145,0.0,2.7,74,0.00,,,0.00,WSDL version 423,2013-03-11 10:10:00,
2013-03-11 06:18:00,40.8,33.2,-100.00,NW,318,1.2,2.2,74,0.00,,,0.00,WSDL version 423,2013-03-11 10:18:00,
2013-03-11 06:24:00,41.0,33.4,-100.00,North,357,0.7,2.9,74,0.00,,,0.00,WSDL version 423,2013-03-11 10:24:00,
2013-03-11 06:30:00,41.0,33.4,-100.00,WNW,293,0.0,2.9,74,0.00,,,0.00,WSDL version 423,2013-03-11 10:30:00,
2013-03-11 06:36:00,41.0,33.4,-100.00,NW,318,1.3,2.2,74,0.00,,,0.00,WSDL version 423,2013-03-11 10:36:00,
2013-03-11 06:42:00,41.0,33.4,-100.00,NW,315,0.0,2.2,74,0.00,,,0.00,WSDL version 423,2013-03-11 10:42:00,
2013-03-11 06:48:00,41.0,33.4,-100.00,NW,320,0.5,2.2,74,0.00,,,0.00,WSDL version 423,2013-03-11 10:48:00,
2013-03-11 06:54:00,41.2,33.5,-100.00,WNW,293,0.0,1.6,74,0.00,,,0.00,WSDL version 423,2013-03-11 10:54:00,
2013-03-11 07:00:00,41.2,33.5,-100.00,NW,312,0.7,2.2,74,0.00,,,0.00,WSDL version 423,2013-03-11 11:00:00,
2013-03-11 07:06:00,41.2,33.5,-100.00,NNW,330,1.4,2.7,74,0.00,,,0.00,WSDL version 423,2013-03-11 11:06:00,
2013-03-11 07:12:00,41.2,33.8,-100.00,NW,323,1.8,5.4,75,0.00,,,0.00,WSDL version 423,2013-03-11 11:12:00,
2013-03-11 07:18:00,41.2,33.9,-100.00,West,276,1.4,5.4,75,0.00,,,0.00,WSDL version 423,2013-03-11 11:18:00,
2013-03-11 07:24:00,41.2,33.9,-100.00,NW,315,1.3,2.9,75,0.00,,,0.00,WSDL version 423,2013-03-11 11:24:00,
2013-03-11 07:30:00,41.4,34.0,-100.00,NW,318,1.8,2.7,75,0.00,,,0.00,WSDL version 423,2013-03-11 11:30:00,
2013-03-11 07:36:00,41.5,34.2,-100.00,WNW,290,0.4,2.7,75,0.00,,,0.00,WSDL version 423,2013-03-11 11:36:00,
2013-03-11 07:42:00,41.5,34.2,-100.00,NNW,338,0.6,2.9,75,0.00,,,0.00,WSDL version 423,2013-03-11 11:42:00,
2013-03-11 07:48:00,41.6,34.3,-100.00,NW,308,0.0,2.5,75,0.00,,,0.00,WSDL version 423,2013-03-11 11:48:00,
2013-03-11 07:54:00,41.7,34.4,-100.00,NW,323,1.2,2.5,75,0.00,,,0.00,WSDL version 423,2013-03-11 11:54:00,
2013-03-11 08:00:00,42.0,34.7,-100.00,NW,318,1.8,3.1,76,0.00,,,0.00,WSDL version 423,2013-03-11 12:00:00,
2013-03-11 08:06:00,42.3,35.2,-100.00,NNW,338,1.7,4.0,76,0.00,,,0.00,WSDL version 423,2013-03-11 12:06:00,
2013-03-11 08:12:00,42.4,35.1,-100.00,NW,318,2.1,4.0,75,0.00,,,0.00,WSDL version 423,2013-03-11 12:12:00,
2013-03-11 08:18:00,42.5,35.2,-100.00,North,3,2.0,3.8,75,0.00,,,0.00,WSDL version 423,2013-03-11 12:18:00,
2013-03-11 08:24:00,42.6,35.3,-100.00,NW,323,2.8,3.8,75,0.00,,,0.00,WSDL version 423,2013-03-11 12:24:00,
2013-03-11 08:30:00,42.7,35.3,-100.00,NW,304,0.7,3.8,75,0.00,,,0.00,WSDL version 423,2013-03-11 12:30:00,
2013-03-11 08:36:00,42.8,35.5,-100.00,WNW,295,1.9,4.0,75,0.00,,,0.00,WSDL version 423,2013-03-11 12:36:00,
2013-03-11 08:42:00,43.0,35.6,-100.00,NNW,338,3.4,5.8,75,0.00,,,0.00,WSDL version 423,2013-03-11 12:42:00,
2013-03-11 08:48:00,43.0,35.6,-100.00,NNW,335,3.1,5.8,75,0.00,,,0.00,WSDL version 423,2013-03-11 12:48:00,
2013-03-11 08:54:00,43.3,35.9,-100.00,NW,320,2.4,5.6,75,0.00,,,0.00,WSDL version 423,2013-03-11 12:54:00,
2013-03-11 09:00:00,43.5,36.3,-100.00,NW,321,1.5,5.6,75,0.00,,,0.00,WSDL version 423,2013-03-11 13:00:00,
2013-03-11 09:06:00,43.9,36.7,-100.00,NW,312,2.4,3.4,76,0.00,,,0.00,WSDL version 423,2013-03-11 13:06:00,
2013-03-11 09:12:00,44.2,37.1,-100.00,NNW,330,2.5,4.0,75,0.00,,,0.00,WSDL version 423,2013-03-11 13:12:00,
2013-03-11 09:18:00,44.2,36.8,-100.00,NW,323,2.2,5.6,75,0.00,,,0.00,WSDL version 423,2013-03-11 13:18:00,
2013-03-11 09:24:00,44.2,36.8,-100.00,NW,321,1.7,5.6,75,0.00,,,0.00,WSDL version 423,2013-03-11 13:24:00,
2013-03-11 09:30:00,44.2,36.8,-100.00,NNW,334,1.8,3.6,75,0.00,,,0.00,WSDL version 423,2013-03-11 13:30:00,
2013-03-11 09:36:00,44.3,36.9,-100.00,WNW,285,0.9,3.6,75,0.00,,,0.00,WSDL version 423,2013-03-11 13:36:00,
2013-03-11 09:42:00,44.6,36.9,-100.00,WSW,239,0.6,2.2,74,0.00,,,0.00,WSDL version 423,2013-03-11 13:42:00,
2013-03-11 09:48:00,44.8,37.0,-100.00,NW,315,1.5,2.9,74,0.00,,,0.00,WSDL version 423,2013-03-11 13:48:00,
2013-03-11 09:56:00,45.2,37.4,-100.00,NW,318,1.9,2.7,74,0.00,,,0.00,WSDL version 423,2013-03-11 13:56:00,
2013-03-11 10:02:00,45.5,37.7,-100.00,WNW,285,1.6,3.1,75,0.00,,,0.00,WSDL version 423,2013-03-11 14:02:00,
2013-03-11 10:08:00,46.0,38.4,-100.00,WNW,298,0.3,3.1,74,0.00,,,0.00,WSDL version 423,2013-03-11 14:08:00,
2013-03-11 10:14:00,46.4,38.6,-100.00,West,276,0.3,3.8,74,0.00,,,0.00,WSDL version 423,2013-03-11 14:14:00,
2013-03-11 10:20:00,47.1,39.3,-100.00,NW,323,2.5,3.8,74,0.00,,,0.00,WSDL version 423,2013-03-11 14:20:00,
2013-03-11 10:26:00,47.7,39.5,-100.00,WNW,302,2.6,4.3,73,0.00,,,0.00,WSDL version 423,2013-03-11 14:26:00,
2013-03-11 10:32:00,48.5,40.0,-100.00,NW,326,2.2,4.3,72,0.00,,,0.00,WSDL version 423,2013-03-11 14:32:00,
2013-03-11 10:40:00,48.8,39.9,-100.00,WNW,284,1.0,3.8,71,0.00,,,0.00,WSDL version 423,2013-03-11 14:40:00,
2013-03-11 10:46:00,49.1,40.2,-100.00,NNW,328,2.2,5.4,71,0.00,,,0.00,WSDL version 423,2013-03-11 14:46:00,
2013-03-11 10:52:00,49.3,40.0,-100.00,WNW,295,2.2,5.4,70,0.00,,,0.00,WSDL version 423,2013-03-11 14:52:00,
2013-03-11 10:58:00,49.4,40.1,-100.00,NW,321,2.7,4.9,70,0.00,,,0.00,WSDL version 423,2013-03-11 14:58:00,
2013-03-11 11:04:00,49.4,40.0,-100.00,NW,315,2.2,4.0,70,0.00,,,0.00,WSDL version 423,2013-03-11 15:04:00,
2013-03-11 11:10:00,49.2,39.9,-100.00,South,177,1.4,4.0,70,0.00,,,0.00,WSDL version 423,2013-03-11 15:10:00,
2013-03-11 11:16:00,49.1,39.6,-100.00,NW,315,1.3,3.6,70,0.00,,,0.00,WSDL version 423,2013-03-11 15:16:00,
2013-03-11 11:22:00,49.2,39.8,-100.00,SW,233,0.0,2.7,70,0.00,,,0.00,WSDL version 423,2013-03-11 15:22:00,
2013-03-11 11:28:00,49.6,40.0,-100.00,SSW,195,1.2,3.4,69,0.00,,,0.00,WSDL version 423,2013-03-11 15:28:00,
2013-03-11 11:34:00,50.0,40.2,-100.00,SW,233,1.9,4.0,69,0.00,,,0.00,WSDL version 423,2013-03-11 15:34:00,
2013-03-11 11:40:00,50.3,40.3,-100.00,SW,215,1.1,4.3,68,0.00,,,0.00,WSDL version 423,2013-03-11 15:40:00,
2013-03-11 11:46:00,50.8,40.6,-100.00,SSE,164,1.4,3.6,68,0.00,,,0.00,WSDL version 423,2013-03-11 15:46:00,
2013-03-11 11:52:00,51.5,41.3,-100.00,South,170,1.2,2.9,68,0.00,,,0.00,WSDL version 423,2013-03-11 15:52:00,
2013-03-11 11:58:00,52.0,41.4,-100.00,SSE,163,0.8,3.4,67,0.00,,,0.00,WSDL version 423,2013-03-11 15:58:00,
2013-03-11 12:04:00,52.6,41.6,-100.00,NNW,330,2.7,6.5,66,0.00,,,0.00,WSDL version 423,2013-03-11 16:04:00,
2013-03-11 12:10:00,53.0,41.8,-100.00,NW,313,2.9,6.5,65,0.00,,,0.00,WSDL version 423,2013-03-11 16:10:00,
2013-03-11 12:16:00,53.1,41.6,-100.00,WSW,248,1.3,5.4,65,0.00,,,0.00,WSDL version 423,2013-03-11 16:16:00,
2013-03-11 12:22:00,53.5,41.8,-100.00,SSW,210,2.1,4.7,64,0.00,,,0.00,WSDL version 423,2013-03-11 16:22:00,
2013-03-11 12:28:00,54.2,42.1,-100.00,ENE,68,2.1,6.3,64,0.00,,,0.00,WSDL version 423,2013-03-11 16:28:00,
2013-03-11 12:34:00,54.6,42.5,-100.00,WNW,296,1.9,6.3,63,0.00,,,0.00,WSDL version 423,2013-03-11 16:34:00,
2013-03-11 12:40:00,54.9,42.5,-100.00,NNW,328,3.4,5.6,63,0.00,,,0.00,WSDL version 423,2013-03-11 16:40:00,
2013-03-11 12:46:00,55.2,42.4,-100.00,North,360,4.4,7.4,62,0.00,,,0.00,WSDL version 423,2013-03-11 16:46:00,
2013-03-11 12:52:00,55.2,42.3,-100.00,NW,308,3.5,7.4,61,0.00,,,0.00,WSDL version 423,2013-03-11 16:52:00,
2013-03-11 12:58:00,55.3,42.3,-100.00,North,357,2.7,6.0,61,0.00,,,0.00,WSDL version 423,2013-03-11 16:58:00,
2013-03-11 13:06:00,55.6,42.2,-100.00,East,80,2.4,6.0,60,0.00,,,0.00,WSDL version 423,2013-03-11 17:06:00,
2013-03-11 13:12:00,55.4,42.0,-100.00,East,90,2.5,5.6,61,0.00,,,0.00,WSDL version 423,2013-03-11 17:12:00,
2013-03-11 13:18:00,55.9,42.4,-100.00,NW,312,2.6,5.6,60,0.00,,,0.00,WSDL version 423,2013-03-11 17:18:00,
2013-03-11 13:26:00,56.4,42.5,-100.00,WNW,295,2.7,5.6,59,0.00,,,0.00,WSDL version 423,2013-03-11 17:26:00,
2013-03-11 13:32:00,56.8,42.8,-100.00,NW,315,3.3,7.6,59,0.00,,,0.00,WSDL version 423,2013-03-11 17:32:00,
2013-03-11 13:38:00,56.7,42.5,-100.00,WNW,290,3.1,7.6,59,0.00,,,0.00,WSDL version 423,2013-03-11 17:38:00,
2013-03-11 13:44:00,56.8,42.3,-100.00,WNW,287,3.4,5.6,59,0.00,,,0.00,WSDL version 423,2013-03-11 17:44:00,
2013-03-11 13:50:00,57.1,42.5,-100.00,NW,321,2.5,5.6,58,0.00,,,0.00,WSDL version 423,2013-03-11 17:50:00,
2013-03-11 13:56:00,57.2,42.3,-100.00,NW,325,3.6,6.0,57,0.00,,,0.00,WSDL version 423,2013-03-11 17:56:00,
2013-03-11 14:02:00,57.1,42.3,-100.00,NW,323,2.3,6.0,58,0.00,,,0.00,WSDL version 423,2013-03-11 18:02:00,
2013-03-11 14:08:00,57.4,42.3,-100.00,NW,312,3.8,8.1,57,0.00,,,0.00,WSDL version 423,2013-03-11 18:08:00,
2013-03-11 14:14:00,57.6,42.5,-100.00,SE,128,2.0,8.1,57,0.00,,,0.00,WSDL version 423,2013-03-11 18:14:00,
2013-03-11 14:20:00,57.7,42.2,-100.00,WNW,301,3.0,4.0,56,0.00,,,0.00,WSDL version 423,2013-03-11 18:20:00,
2013-03-11 14:26:00,57.9,42.5,-100.00,West,267,2.0,5.4,57,0.00,,,0.00,WSDL version 423,2013-03-11 18:26:00,
2013-03-11 14:32:00,57.9,42.6,-100.00,West,270,1.4,5.4,56,0.00,,,0.00,WSDL version 423,2013-03-11 18:32:00,
2013-03-11 14:38:00,58.1,42.4,-100.00,WNW,293,3.1,5.6,56,0.00,,,0.00,WSDL version 423,2013-03-11 18:38:00,
2013-03-11 14:44:00,57.9,42.1,-100.00,West,281,3.0,5.6,55,0.00,,,0.00,WSDL version 423,2013-03-11 18:44:00,
2013-03-11 14:50:00,57.9,42.2,-100.00,NW,315,2.6,6.3,56,0.00,,,0.00,WSDL version 423,2013-03-11 18:50:00,
2013-03-11 14:56:00,57.7,42.1,-100.00,West,268,2.5,6.5,56,0.00,,,0.00,WSDL version 423,2013-03-11 18:56:00,
2013-03-11 15:02:00,57.7,42.1,-100.00,NW,326,2.9,6.5,56,0.00,,,0.00,WSDL version 423,2013-03-11 19:02:00,
2013-03-11 15:08:00,57.6,42.0,-100.00,West,263,2.4,5.8,56,0.00,,,0.00,WSDL version 423,2013-03-11 19:08:00,
2013-03-11 15:14:00,57.4,41.9,-100.00,NNW,333,3.5,5.8,56,0.00,,,0.00,WSDL version 423,2013-03-11 19:14:00,
2013-03-11 15:20:00,57.1,41.6,-100.00,NW,305,3.7,6.3,56,0.00,,,0.00,WSDL version 423,2013-03-11 19:20:00,
2013-03-11 15:26:00,56.9,41.8,-100.00,NW,312,3.6,6.3,57,0.00,,,0.00,WSDL version 423,2013-03-11 19:26:00,
2013-03-11 15:32:00,57.0,41.9,-100.00,NW,310,3.6,5.6,57,0.00,,,0.00,WSDL version 423,2013-03-11 19:32:00,
2013-03-11 15:38:00,56.9,42.1,-100.00,WNW,298,3.6,5.4,58,0.00,,,0.00,WSDL version 423,2013-03-11 19:38:00,
2013-03-11 15:44:00,57.0,42.3,-100.00,NNW,329,3.6,5.8,58,0.00,,,0.00,WSDL version 423,2013-03-11 19:44:00,
2013-03-11 15:50:00,56.7,41.9,-100.00,NW,312,3.3,6.0,58,0.00,,,0.00,WSDL version 423,2013-03-11 19:50:00,
2013-03-11 15:56:00,56.5,41.9,-100.00,NW,315,3.4,5.4,58,0.00,,,0.00,WSDL version 423,2013-03-11 19:56:00,
2013-03-11 16:02:00,56.3,41.8,-100.00,NNW,338,2.8,5.4,59,0.00,,,0.00,WSDL version 423,2013-03-11 20:02:00,
2013-03-11 16:08:00,55.9,41.8,-100.00,NW,304,3.4,5.4,59,0.00,,,0.00,WSDL version 423,2013-03-11 20:08:00,
2013-03-11 16:14:00,55.4,41.5,-100.00,NNW,333,4.4,9.8,60,0.00,,,0.00,WSDL version 423,2013-03-11 20:14:00,
2013-03-11 16:20:00,54.9,41.3,-100.00,NNW,343,3.5,9.8,60,0.00,,,0.00,WSDL version 423,2013-03-11 20:20:00,
2013-03-11 16:26:00,54.4,41.2,-100.00,West,280,3.8,7.6,61,0.00,,,0.00,WSDL version 423,2013-03-11 20:26:00,
2013-03-11 16:32:00,54.1,41.0,-100.00,NW,309,3.2,7.4,61,0.00,,,0.00,WSDL version 423,2013-03-11 20:32:00,
2013-03-11 16:38:00,54.0,41.3,-100.00,WNW,293,3.1,4.7,62,0.00,,,0.00,WSDL version 423,2013-03-11 20:38:00,
2013-03-11 16:44:00,54.0,41.3,-100.00,NW,320,3.1,5.8,62,0.00,,,0.00,WSDL version 423,2013-03-11 20:44:00,
2013-03-11 16:50:00,53.6,41.2,-100.00,WNW,298,4.0,6.3,63,0.00,,,0.00,WSDL version 423,2013-03-11 20:50:00,
2013-03-11 16:56:00,53.3,41.1,-100.00,NW,305,3.0,6.3,64,0.00,,,0.00,WSDL version 423,2013-03-11 20:56:00,
2013-03-11 17:02:00,53.2,41.4,-100.00,WNW,295,2.9,5.8,64,0.00,,,0.00,WSDL version 423,2013-03-11 21:02:00,
2013-03-11 17:08:00,53.2,41.4,-100.00,NW,307,2.9,5.4,64,0.00,,,0.00,WSDL version 423,2013-03-11 21:08:00,
2013-03-11 17:14:00,53.2,41.4,-100.00,NNW,343,4.2,6.5,65,0.00,,,0.00,WSDL version 423,2013-03-11 21:14:00,
2013-03-11 17:20:00,52.8,41.1,-100.00,WNW,285,3.6,8.5,65,0.00,,,0.00,WSDL version 423,2013-03-11 21:20:00,
2013-03-11 17:26:00,52.4,41.0,-100.00,NW,325,2.9,10.3,65,0.00,,,0.00,WSDL version 423,2013-03-11 21:26:00,
2013-03-11 17:32:00,52.3,41.3,-100.00,NW,309,3.1,10.3,66,0.00,,,0.00,WSDL version 423,2013-03-11 21:32:00,
2013-03-11 17:38:00,52.3,41.3,-100.00,NNW,333,2.9,4.3,66,0.00,,,0.00,WSDL version 423,2013-03-11 21:38:00,
2013-03-11 17:44:00,52.2,41.2,-100.00,WNW,303,2.5,6.0,66,0.00,,,0.00,WSDL version 423,2013-03-11 21:44:00,
2013-03-11 17:50:00,52.0,41.1,-100.00,NW,321,2.2,4.0,66,0.00,,,0.00,WSDL version 423,2013-03-11 21:50:00,
2013-03-11 17:56:00,51.6,40.9,-100.00,West,278,3.9,6.5,67,0.00,,,0.00,WSDL version 423,2013-03-11 21:56:00,
2013-03-11 18:02:00,51.2,40.8,-100.00,North,353,3.8,7.4,68,0.00,,,0.00,WSDL version 423,2013-03-11 22:02:00,
2013-03-11 18:08:00,50.9,40.6,-100.00,West,280,3.1,7.4,68,0.00,,,0.00,WSDL version 423,2013-03-11 22:08:00,
2013-03-11 18:14:00,50.6,40.4,-100.00,SE,146,2.4,6.3,68,0.00,,,0.00,WSDL version 423,2013-03-11 22:14:00,
2013-03-11 18:20:00,50.4,40.2,-100.00,NNW,331,2.4,4.9,68,0.00,,,0.00,WSDL version 423,2013-03-11 22:20:00,
2013-03-11 18:26:00,50.1,40.3,-100.00,WNW,298,2.6,4.3,69,0.00,,,0.00,WSDL version 423,2013-03-11 22:26:00,
2013-03-11 18:32:00,49.9,40.2,-100.00,NW,321,3.0,6.0,70,0.00,,,0.00,WSDL version 423,2013-03-11 22:32:00,
2013-03-11 18:38:00,49.6,40.2,-100.00,NW,315,2.9,6.0,70,0.00,,,0.00,WSDL version 423,2013-03-11 22:38:00,
2013-03-11 18:44:00,49.2,40.2,-100.00,West,280,2.3,7.4,71,0.00,,,0.00,WSDL version 423,2013-03-11 22:44:00,
2013-03-11 18:50:00,49.0,40.0,-100.00,NW,320,2.3,4.9,71,0.00,,,0.00,WSDL version 423,2013-03-11 22:50:00,
2013-03-11 18:56:00,48.7,39.8,-100.00,NW,304,1.7,4.0,71,0.00,,,0.00,WSDL version 423,2013-03-11 22:56:00,
2013-03-11 19:02:00,48.7,39.7,-100.00,WNW,300,2.5,3.6,71,0.00,,,0.00,WSDL version 423,2013-03-11 23:02:00,
2013-03-11 19:08:00,48.6,39.6,-100.00,NW,313,2.9,4.7,71,0.00,,,0.00,WSDL version 423,2013-03-11 23:08:00,
2013-03-11 19:14:00,48.5,39.8,-100.00,NW,323,2.7,6.3,71,0.00,,,0.00,WSDL version 423,2013-03-11 23:14:00,
2013-03-11 19:20:00,48.2,39.7,-100.00,WNW,284,2.7,6.3,72,0.00,,,0.00,WSDL version 423,2013-03-11 23:20:00,
2013-03-11 19:26:00,48.1,39.7,-100.00,NNW,333,3.3,5.4,73,0.00,,,0.00,WSDL version 423,2013-03-11 23:26:00,
2013-03-11 19:32:00,47.9,39.7,-100.00,NNW,330,3.0,5.4,73,0.00,,,0.00,WSDL version 423,2013-03-11 23:32:00,
2013-03-11 19:38:00,47.7,39.7,-100.00,NNW,329,3.6,5.6,74,0.00,,,0.00,WSDL version 423,2013-03-11 23:38:00,
2013-03-11 19:44:00,47.7,39.8,-100.00,WNW,300,3.0,6.0,74,0.00,,,0.00,WSDL version 423,2013-03-11 23:44:00,
2013-03-11 19:50:00,47.7,39.9,-100.00,NNW,330,3.2,6.0,74,0.00,,,0.00,WSDL version 423,2013-03-11 23:50:00,
2013-03-11 19:56:00,48.0,40.5,-100.00,NNW,338,3.3,5.4,75,0.00,,,0.00,WSDL version 423,2013-03-11 23:56:00,
2013-03-11 20:02:00,48.2,40.5,-100.00,NW,315,3.8,8.5,75,0.00,,,0.00,WSDL version 423,2013-03-12 00:02:00,
2013-03-11 20:08:00,48.4,40.8,-100.00,NNW,345,3.0,8.5,75,0.00,,,0.00,WSDL version 423,2013-03-12 00:08:00,
2013-03-11 20:14:00,48.4,40.8,-100.00,NW,325,3.1,5.4,75,0.00,,,0.00,WSDL version 423,2013-03-12 00:14:00,
2013-03-11 20:20:00,48.4,40.8,-100.00,NNW,335,3.0,5.4,75,0.00,,,0.00,WSDL version 423,2013-03-12 00:20:00,
2013-03-11 20:26:00,48.4,40.7,-100.00,NNW,328,2.2,4.0,74,0.00,,,0.00,WSDL version 423,2013-03-12 00:26:00,
2013-03-11 20:33:00,48.6,40.9,-100.00,NW,320,1.9,3.8,74,0.00,,,0.00,WSDL version 423,2013-03-12 00:33:00,
2013-03-11 20:39:00,48.6,40.8,-100.00,NW,326,2.3,4.7,75,0.00,,,0.00,WSDL version 423,2013-03-12 00:39:00,
2013-03-11 20:45:00,48.7,41.1,-100.00,NW,323,2.8,4.7,75,0.00,,,0.00,WSDL version 423,2013-03-12 00:45:00,
2013-03-11 20:51:00,48.7,41.2,-100.00,NW,313,2.9,4.3,75,0.00,,,0.00,WSDL version 423,2013-03-12 00:51:00,
2013-03-11 20:57:00,48.7,41.2,-100.00,NW,326,3.6,4.9,75,0.00,,,0.00,WSDL version 423,2013-03-12 00:57:00,
2013-03-11 21:03:00,48.8,41.3,-100.00,NW,309,3.4,5.4,75,0.00,,,0.00,WSDL version 423,2013-03-12 01:03:00,
2013-03-11 21:09:00,48.9,41.5,-100.00,NW,315,2.2,6.3,76,0.00,,,0.00,WSDL version 423,2013-03-12 01:09:00,
2013-03-11 21:15:00,48.9,41.7,-100.00,NNW,335,2.3,6.3,76,0.00,,,0.00,WSDL version 423,2013-03-12 01:15:00,
2013-03-11 21:21:00,48.9,41.7,-100.00,NW,315,3.1,4.9,76,0.00,,,0.00,WSDL version 423,2013-03-12 01:21:00,
2013-03-11 21:27:00,48.9,41.7,-100.00,NW,321,2.0,4.9,76,0.00,,,0.00,WSDL version 423,2013-03-12 01:27:00,
2013-03-11 21:33:00,48.9,41.7,-100.00,NW,318,1.5,5.4,76,0.00,,,0.00,WSDL version 423,2013-03-12 01:33:00,
2013-03-11 21:39:00,48.9,41.7,-100.00,NNW,347,1.7,5.4,76,0.00,,,0.00,WSDL version 423,2013-03-12 01:39:00,
2013-03-11 21:45:00,49.0,41.8,-100.00,NW,326,2.3,3.8,76,0.00,,,0.00,WSDL version 423,2013-03-12 01:45:00,
2013-03-11 21:51:00,49.2,41.9,-100.00,West,270,1.4,3.8,76,0.00,,,0.00,WSDL version 423,2013-03-12 01:51:00,
2013-03-11 21:57:00,49.3,42.4,-100.00,NW,320,2.4,4.0,77,0.00,,,0.00,WSDL version 423,2013-03-12 01:57:00,
2013-03-11 22:03:00,49.5,42.7,-100.00,NNW,330,2.8,4.3,78,0.00,,,0.00,WSDL version 423,2013-03-12 02:03:00,
2013-03-11 22:09:00,49.5,42.6,-100.00,NNW,343,1.7,4.7,77,0.00,,,0.00,WSDL version 423,2013-03-12 02:09:00,
2013-03-11 22:15:00,49.3,42.4,-100.00,NNW,335,2.2,4.9,77,0.00,,,0.00,WSDL version 423,2013-03-12 02:15:00,
2013-03-11 22:21:00,49.2,42.6,-100.00,NW,318,3.1,4.9,78,0.00,,,0.00,WSDL version 423,2013-03-12 02:21:00,
2013-03-11 22:27:00,49.1,42.5,-100.00,NW,323,2.3,4.9,78,0.00,,,0.00,WSDL version 423,2013-03-12 02:27:00,
2013-03-11 22:33:00,48.9,42.3,-100.00,NNW,335,2.1,5.4,78,0.00,,,0.00,WSDL version 423,2013-03-12 02:33:00,
2013-03-11 22:39:00,48.7,42.2,-100.00,NW,315,2.0,4.9,78,0.00,,,0.00,WSDL version 423,2013-03-12 02:39:00,
2013-03-11 22:45:00,48.7,42.2,-100.00,NNW,328,2.1,3.6,78,0.00,,,0.00,WSDL version 423,2013-03-12 02:45:00,
2013-03-11 22:51:00,48.7,42.3,-100.00,NNW,340,3.4,4.9,79,0.00,,,0.00,WSDL version 423,2013-03-12 02:51:00,
2013-03-11 22:57:00,48.7,42.5,-100.00,NNW,330,2.8,4.9,79,0.00,,,0.00,WSDL version 423,2013-03-12 02:57:00,
2013-03-11 23:03:00,48.7,42.5,-100.00,NNW,328,2.5,4.3,79,0.00,,,0.00,WSDL version 423,2013-03-12 03:03:00,
2013-03-11 23:09:00,48.7,42.4,-100.00,NW,315,1.1,4.0,79,0.00,,,0.00,WSDL version 423,2013-03-12 03:09:00,
2013-03-11 23:15:00,48.6,42.4,-100.00,NW,315,2.8,3.4,79,0.00,,,0.00,WSDL version 423,2013-03-12 03:15:00,
2013-03-11 23:22:00,48.6,42.5,-100.00,NW,315,2.3,3.4,79,0.00,,,0.00,WSDL version 423,2013-03-12 03:22:00,
2013-03-11 23:27:00,48.6,42.5,-100.00,NW,323,2.5,3.8,80,0.00,,,0.00,WSDL version 423,2013-03-12 03:27:00,
2013-03-11 23:33:00,48.6,42.7,-100.00,NW,320,2.8,4.0,80,0.00,,,0.00,WSDL version 423,2013-03-12 03:33:00,
2013-03-11 23:39:00,48.6,42.7,-100.00,NNW,335,2.1,4.0,80,0.00,,,0.00,WSDL version 423,2013-03-12 03:39:00,
2013-03-11 23:45:00,48.6,42.7,-100.00,NNW,334,1.2,3.1,80,0.00,,,0.00,WSDL version 423,2013-03-12 03:45:00,
2013-03-11 23:51:00,48.6,42.7,-100.00,NW,323,2.5,2.9,80,0.00,,,0.00,WSDL version 423,2013-03-12 03:51:00,
2013-03-11 23:57:00,48.6,42.7,-100.00,NW,307,1.7,2.9,80,0.00,,,0.00,WSDL version 423,2013-03-12 03:57:00,